View from above orbital plane
|
View from above satellite
|
Ground track
|
The orbit data is extracted from the following two-line orbital elements,
1 28738U 05024B 21018.77787695 .00000315 00000-0 21831-4 0 9995
2 28738 97.3696 40.0536 0012530 152.8408 207.3481 15.12241001853948
Epoch (UTC): | 18 January 2021 18:40:08 |
Eccentricity: | 0.0012530 |
inclination: | 97.3696° |
perigee height: | 521 km |
apogee height: | 538 km |
right ascension of ascending node: | 40.0536° |
argument of perigee: | 152.8408° |
revolutions per day: | 15.12241001 |
mean anomaly at epoch: | 207.3481° |
orbit number at epoch: | 85394 |
The dashed part of the orbit path shows where the satellite is in the earth's shadow,
|
|